Tracking 18942 objects as of 18-Jan-2018
HD Live streaming from Space Station
objects crossing your sky now

SL-12 R/B(2)

Track SL-12 R/B(2) now!


NORAD ID: 24919
Int'l Code: 1997-046D
Perigee: 8,394.6 km
Apogee: 35,994.4 km
Inclination: 14.8 °
Period: 800.8 minutes
Semi major axis: 28565 km
RCS: 29.9426 m2 (large)
Launch date: August 28, 1997
Source: Commonwealth of Independent States (former USSR) (CIS)
Launch site: TYURATAM MISSILE AND SPACE COMPLEX (TTMTR)

Note: This is a ROCKET BODY
aabbcc
Your satellite tracking list
Your tracking list is empty




NASA's NSSDC Master Catalog

Two Line Element Set (TLE):
1 24919U 97046D   18017.49546794 -.00000078 +00000-0 +00000-0 0  9992
2 24919 014.8023 038.7964 4830970 199.5125 352.2260 01.79820825133879
Source of the keplerian elements: AFSPC